Regional Weather Roundup
Issued by NWS Newport/Morehead, NC

Current Version | Previous Version | Text Only | Print | Product List | Glossary On
Versions: 1 2 3 4 5 6 7 8 9 10 11 12 13 14 15 16 17 18 19 20 21 22 23 24 25 26 27 28 29 30 31 32 33 34 35 36 37 38 39 40 41 42 43 44 45 46 47 48 49 50
000
ASUS42 KMHX 231410
RWRMHX
WEATHER ROUNDUP FOR EASTERN NORTH CAROLINA
NATIONAL WEATHER SERVICE NEWPORT/MOREHEAD CITY NC
900 AM EST SUN NOV 23 2014

NOTE: "FAIR" INDICATES FEW OR NO CLOUDS BELOW 12,000 FEET
WITH NO SIGNIFICANT WEATHER AND/OR OBSTRUCTIONS TO VISIBILITY

NCZ015>017-031-032-045>047-102-103-231500-
NORTH COAST

CITY           SKY/WX    TMP DP  RH WIND       PRES   REMARKS
EDENTON        CLOUDY    45  40  83 CALM      30.27S
ELIZABETH CITY CLOUDY    48  40  73 CALM      30.27F
KITTY HAWK     CLOUDY    56  48  73 SE3       30.26F
MANTEO         CLOUDY    55  50  85 CALM      30.28F

$$

NCZ045>047-081-094-103-104-231500-
CENTRAL COAST

CITY           SKY/WX    TMP DP  RH WIND       PRES   REMARKS
FRISCO         CLOUDY    58  54  86 E5        30.28F
SWANQUARTER      N/A     54 N/A N/A E2        30.21S

$$

NCZ095-097-098-100-101-231500-
SOUTHERN COAST

CITY           SKY/WX    TMP DP  RH WIND       PRES   REMARKS
BEAUFORT       LGT RAIN  62  55  77 SE7       30.25S
CEDAR ISLAND     N/A     54 N/A N/A SE6       30.30S
JACKSONVILLE   CLOUDY    52  50  93 N3        30.24S
PINEY ISLAND   LGT RAIN  59  52  77 SE8       30.25F
WILMINGTON     LGT RAIN  60  57  89 SE6       30.24S


$$

NCZ011>013-027>030-043-044-078>080-089-090>093-098-231500-
COASTAL PLAIN

CITY           SKY/WX    TMP DP  RH WIND       PRES   REMARKS
AHOSKIE        CLOUDY    40  35  81 CALM      30.26F
CLINTON        DRIZZLE   47  45  90 CALM      30.25F
ELIZABETHTOWN  DRIZZLE   47  47 100 CALM      30.24S
GOLDSBORO      CLOUDY    45  42  88 CALM      30.23F
GREENVILLE     CLOUDY    43  37  81 CALM      30.26F
HAVELOCK       CLOUDY    55  52  89 CALM      30.25F
KENANSVILLE    CLOUDY    47  43  85 CALM      30.26F
KINSTON        CLOUDY    46  39  76 CALM      30.26F
NEW BERN       LGT RAIN  52  47  83 NW3       30.26S
RICHLANDS      CLOUDY    50  46  87 CALM      30.25F
ROCKY MOUNT    CLOUDY    43  31  62 CALM      30.26S
WASHINGTON     CLOUDY    46  41  82 CALM      30.27R
WHITEVILLE     LGT RAIN  54  52  94 CALM      30.24R

$$

AMZ130-135-150-152-154-156-158-170-250-252-270-ANZ085-086-088-633-658-670-231500-
MARINE OBSERVATIONS

STATION/POSITION TIME  TEMP    WIND        PRES    WAVE   SWELL
                       AIR SEA DIR/SP/G            HT/PER HT/PER
                 (UTC) (F)     (DEG/KT/KT) (MB)    (FT/S) (FT/S)
CHESAPEAKE LIGHT 1300   51     230/  4/  5 1026.3
64 E VA BEACH    1400   64 64  200/ 12/ 16 1025.3    2/ 9   2/ 9
DUCK             1400   56 54  140/  7/  8 1024.2
2 E DUCK         1400      56                N/A     1/ 9
10 NE DUCK       1400      58                N/A     1/ 8
OREGON INLET     1400   57 50  100/  3/  4 1025.3
13E OREGON INLT  1400      62                N/A     2/ 8
HATTERAS CG      1400   62 51   90/  5/  7 1025.4
DIAMOND BUOY     1400   69     140/ 12/ 14 1025.6    3/ 8   2/ 8
17 S OCRACOKE    NOT AVBL
CAPE LOOKOUT     1300   64     110/  8/  8 1024.3
BEAUFORT LAB     1400   58 53  130/  6/  7 1023.3
30 SE NEW RIVER  1400   69 70  140/ 14/ 16 1023.4    3/ 9   2/ 9
5 SE WRIGHTSVLE  1300   58 60  150/  4/  6 1024.1
225 S CAPE HAT   1324   71 73  130/ 17/ 21 1024.9    4/ 5   2/ 8
41 SE CHARLESTON 1400   70 76  110/ 23/ 29 1019.4    7/ 7   2/14

$$


USA.gov is the U.S. government's official web portal to all federal, state and local government web resources and services.